Total_Precipitation_Accumulation
2.83 2.37 3.81 4.02 3.66 3.31 3.08 3.16 3.36 3.35 3.46 3.48 3.39 3.11 2.97 2.98 3.18 3.20 2.93 2.66 2.57 2.65 2.97 3.11 3.10 3.22 3.04 2.98 3.01 3.15 3.37 3.59 3.64 3.23 3.04 2.93 2.80 2.77 2.85 2.99 3.23 3.62 3.29
2.03 2.02 3.38 3.85 3.69 3.44 3.32 3.28 3.36 3.40 3.42 3.38 3.24 3.13 2.82 2.67 2.95 3.34 3.13 2.95 2.73 2.66 2.73 2.93 3.10 3.28 3.23 3.19 3.34 3.41 3.48 3.56 3.68 3.43 3.35 3.34 3.24 3.08 2.76 2.79 3.25 3.59 3.11
1.74 1.88 2.69 3.73 3.64 3.33 3.36 3.31 3.22 3.22 3.14 3.06 3.00 2.81 2.74 2.64 2.69 3.03 2.99 2.95 2.79 2.67 2.71 2.90 3.20 3.43 3.45 3.45 3.60 3.68 3.63 3.69 3.70 3.49 3.63 3.96 3.53 3.45 3.18 2.96 2.94 3.02 2.98
1.40 1.62 2.23 3.20 3.11 3.02 3.04 2.83 2.76 2.75 2.69 2.73 2.79 2.61 2.57 2.61 2.77 3.10 3.05 2.84 2.66 2.54 2.63 2.91 3.23 3.35 3.41 3.48 3.52 3.72 3.69 3.79 3.71 3.33 3.40 3.78 3.70 3.69 3.62 3.33 3.04 2.95 3.17
1.22 1.55 2.32 3.06 2.89 2.89 2.84 2.56 2.57 2.49 2.46 2.51 2.63 2.55 2.65 2.65 2.76 3.04 3.11 3.03 2.89 2.88 2.90 3.10 3.21 3.25 3.41 3.47 3.53 3.70 3.77 3.74 3.52 2.98 3.01 3.47 4.17 4.09 3.69 3.53 3.29 3.20 3.34
1.28 1.44 2.03 2.71 2.63 2.56 2.49 2.52 2.49 2.37 2.34 2.34 2.44 2.50 2.64 2.72 2.73 2.94 3.10 2.92 2.77 3.03 3.30 3.47 3.43 3.41 3.48 3.53 3.45 3.63 3.83 3.55 2.96 2.89 3.15 3.57 4.04 4.00 3.54 3.31 3.35 3.47 3.61
1.15 1.20 1.61 2.36 2.37 2.30 2.31 2.40 2.46 2.35 2.36 2.27 2.32 2.55 2.68 2.69 2.76 2.89 3.02 2.91 2.77 2.93 3.40 3.65 3.68 3.63 3.48 3.43 3.54 3.52 3.63 3.26 2.76 2.90 3.17 3.53 3.72 3.90 3.56 3.37 3.47 3.59 3.81
1.25 1.17 1.38 2.09 2.26 2.17 2.28 2.29 2.33 2.42 2.38 2.27 2.30 2.40 2.56 2.65 2.66 2.77 2.83 2.87 2.79 2.85 3.12 3.27 3.26 3.43 3.29 3.26 3.37 3.28 3.27 2.83 2.39 2.55 2.90 3.43 4.00 4.04 3.50 3.23 3.24 3.50 3.71
1.51 1.45 1.52 1.75 1.93 2.12 2.24 2.24 2.35 2.48 2.43 2.27 2.19 2.23 2.29 2.41 2.39 2.42 2.49 2.68 2.75 2.91 2.99 3.00 3.15 3.29 3.27 3.26 3.17 3.23 3.21 2.70 2.35 2.53 2.48 3.35 4.28 4.25 3.74 3.31 3.11 3.28 3.54
1.44 1.42 1.46 1.61 1.68 1.74 1.90 2.26 2.53 2.89 2.76 2.32 2.05 1.93 2.09 2.12 2.09 2.22 2.30 2.62 2.92 3.14 3.37 3.36 3.46 3.29 3.23 3.06 2.85 2.95 2.90 2.39 2.41 2.38 2.71 3.40 4.52 4.44 3.93 3.43 3.06 2.95 3.11
1.11 1.16 1.27 1.38 1.43 1.49 1.51 1.78 2.32 2.79 2.79 2.32 1.93 1.88 1.83 1.65 1.63 1.79 2.03 2.53 2.91 3.20 3.55 3.61 3.49 3.25 2.93 2.73 2.57 2.48 2.21 2.07 2.32 2.45 2.89 3.68 4.38 4.40 3.83 3.31 2.97 2.92 2.86
0.96 0.93 0.94 0.95 1.06 1.13 1.13 1.47 1.81 1.86 2.07 1.83 1.74 1.66 1.64 1.67 1.69 1.43 1.63 2.18 2.60 2.90 3.17 3.40 3.32 2.89 2.25 2.01 2.11 2.08 1.77 1.76 1.93 2.20 2.91 3.95 4.55 4.43 3.79 3.29 3.01 3.02 2.83
0.87 0.85 0.79 0.76 0.83 0.98 1.12 1.29 1.51 1.66 1.82 1.80 1.74 1.75 1.85 1.82 1.54 1.38 1.48 1.66 1.96 2.28 2.40 2.62 2.61 2.14 1.78 1.68 1.82 1.79 1.66 1.64 1.83 2.11 2.91 3.95 4.64 4.66 3.92 3.37 3.13 3.17 3.15
0.71 0.80 0.76 0.62 0.64 0.73 0.82 0.99 1.15 1.37 1.58 1.64 1.48 1.45 1.62 1.70 1.54 1.42 1.59 1.66 1.85 2.16 2.42 2.48 2.27 1.96 1.61 1.47 1.62 1.64 1.52 1.60 1.75 1.91 2.51 3.24 4.10 4.63 4.38 3.81 3.49 3.33 3.39
0.72 0.78 0.81 0.71 0.67 0.70 0.76 0.81 0.84 1.15 1.34 1.50 1.56 1.38 1.51 1.59 1.55 1.44 1.40 1.59 1.68 1.99 2.23 2.33 2.21 2.04 1.79 1.55 1.52 1.50 1.58 1.57 1.59 1.63 2.00 2.47 3.03 3.90 4.34 4.23 3.99 3.78 3.79
0.68 0.77 0.78 0.78 0.76 0.75 0.77 0.77 0.77 0.84 0.94 1.05 1.01 1.02 1.19 1.34 1.37 1.40 1.30 1.39 1.57 1.92 2.34 2.44 2.14 2.05 1.87 1.76 1.73 1.66 1.64 1.61 1.61 1.53 1.71 1.99 2.11 2.55 3.26 3.84 4.12 4.07 4.06
0.68 0.72 0.78 0.82 0.87 0.87 0.87 0.92 0.90 0.85 0.87 0.88 0.84 0.85 0.94 1.08 1.17 1.27 1.34 1.35 1.48 1.84 2.30 2.56 2.35 2.16 1.94 1.87 1.82 1.76 1.69 1.70 1.64 1.55 1.66 1.86 1.79 1.89 2.38 3.10 3.79 4.07 3.95
0.69 0.62 0.66 0.70 0.78 0.81 0.85 0.91 1.00 1.00 0.99 0.98 1.00 0.96 0.92 1.06 1.17 1.27 1.38 1.35 1.42 1.74 2.15 2.49 2.52 2.45 2.32 2.19 2.05 1.90 1.80 1.94 1.80 1.66 1.71 1.87 2.00 1.85 1.93 2.37 2.96 3.53 3.76
0.66 0.57 0.54 0.60 0.63 0.65 0.67 0.74 0.88 0.95 1.01 1.10 1.09 1.10 1.13 1.20 1.21 1.31 1.54 1.58 1.60 1.83 2.02 2.12 2.30 2.36 2.42 2.33 2.04 1.98 1.88 2.00 2.10 1.99 2.04 2.13 2.16 2.09 1.96 1.94 2.19 2.50 3.14
0.59 0.58 0.58 0.60 0.59 0.55 0.54 0.63 0.77 0.85 0.92 1.11 1.17 1.21 1.49 1.63 1.43 1.38 1.57 1.63 1.70 1.97 2.07 2.17 2.45 2.47 2.41 2.45 2.15 2.00 1.96 1.96 2.02 2.22 2.35 2.36 2.34 2.14 2.08 1.94 2.07 2.07 2.51
0.42 0.41 0.50 0.54 0.62 0.60 0.50 0.50 0.65 0.79 0.92 1.08 1.26 1.27 1.48 1.61 1.52 1.55 1.63 1.69 1.74 1.88 1.95 2.09 2.50 2.60 2.46 2.31 2.46 2.44 2.32 2.11 2.03 2.11 2.24 2.46 2.55 2.34 2.24 2.23 2.15 2.05 2.02
0.40 0.35 0.38 0.44 0.53 0.64 0.65 0.64 0.76 0.95 1.07 1.18 1.35 1.39 1.47 1.48 1.45 1.41 1.64 1.82 1.80 1.96 2.01 2.17 2.50 2.80 2.56 2.36 2.74 3.22 2.95 2.64 2.27 2.03 2.08 2.14 2.38 2.39 2.24 2.11 2.00 1.99 1.95
0.33 0.29 0.34 0.44 0.57 0.74 0.92 1.15 1.39 1.67 1.82 1.71 1.59 1.68 1.76 1.80 1.72 1.67 1.78 1.97 1.95 2.03 2.14 2.18 2.27 2.80 3.00 2.73 2.66 3.28 3.17 2.90 2.83 2.28 1.86 1.76 2.04 2.25 2.27 2.13 2.03 2.08 2.08
0.37 0.42 0.53 0.69 0.84 0.99 1.18 1.41 1.69 1.97 2.17 2.15 2.18 2.24 2.19 2.11 1.98 1.84 1.89 2.00 2.06 2.16 2.14 1.96 2.12 2.63 3.17 3.22 2.97 2.73 2.59 2.50 2.67 2.60 2.03 1.68 1.74 1.94 2.17 2.08 2.07 2.16 2.20
0.54 0.68 0.81 1.11 1.28 1.37 1.41 1.50 1.72 1.82 1.94 2.04 2.16 2.22 2.21 2.14 2.02 1.87 1.84 2.00 2.12 2.19 2.18 2.21 2.35 2.64 2.98 3.29 3.25 2.98 2.68 2.43 2.01 2.18 2.23 2.01 1.71 1.63 1.74 1.89 2.06 2.13 2.17
0.88 1.12 1.25 1.41 1.64 1.58 1.47 1.45 1.56 1.69 1.79 1.90 2.05 2.11 2.03 1.91 1.88 1.84 1.85 1.90 1.92 2.01 2.10 2.26 2.49 2.63 2.82 3.06 3.14 2.82 2.67 2.57 2.32 2.13 1.96 2.04 2.00 1.70 1.55 1.56 1.70 1.90 2.00